This is the latest recevied weather packets stored in our database for station/object kj4yre. If no packets are shown the sender has not sent any weather packets the latest 10 day(s).
| Time | Temp. | Humidity | Pressure | Rain* | Wind** | Luminosity | Snow |
|---|---|---|---|---|---|---|---|
| 1777518738 | 16.11° C | 91% | 1009.1 hPa | 0 mm | - | - | - |
| 1777517236 | 16.11° C | 91% | 1009.2 hPa | 0 mm | - | - | - |
| 1777516036 | 16.11° C | 91% | 1009.1 hPa | 0 mm | - | - | - |
| 1777515436 | 16.11° C | 91% | 1009 hPa | 0 mm | - | - | - |
| 1777515135 | 16.11° C | 91% | 1009.1 hPa | 0 mm | - | - | - |
| 1777513037 | 16.11° C | 89% | 1009.3 hPa | 0 mm | - | - | - |
| 1777512435 | 16.11° C | 87% | 1009 hPa | 0 mm | - | - | - |
| 1777512136 | 16.11° C | 86% | 1009.2 hPa | 0 mm | - | - | - |
| 1777508837 | 16.67° C | 84% | 1009.6 hPa | 0 mm | - | - | - |
| 1777508237 | 16.67° C | 83% | 1009.4 hPa | 0 mm | - | - | - |
| 1777507035 | 16.67° C | 83% | 1009.4 hPa | 0 mm | - | - | - |
| 1777506736 | 16.67° C | 83% | 1009.3 hPa | 0 mm | - | - | - |
| 1777505834 | 17.22° C | 83% | 1009.1 hPa | 0 mm | - | - | - |
| 1777503137 | 17.78° C | 81% | 1009.1 hPa | 0 mm | - | - | - |
| 1777502836 | 18.33° C | 80% | 1009.2 hPa | 0 mm | - | - | - |
| 1777500436 | 18.89° C | 78% | 1009.4 hPa | 0 mm | - | - | - |
| 1777496237 | 20° C | 75% | 1010 hPa | 0 mm | - | - | - |
| 1777495035 | 20° C | 73% | 1010.5 hPa | 0 mm | - | - | - |
| 1777492037 | 21.11° C | 70% | 1011 hPa | 0 mm | - | - | - |
| 1777491736 | 21.11° C | 71% | 1011.1 hPa | 0 mm | - | - | - |
| 1777491437 | 22.22° C | 71% | 1011.2 hPa | 0 mm | - | - | - |
| 1777491136 | 22.22° C | 68% | 1011.1 hPa | 0 mm | - | - | - |
| 1777489938 | 21.67° C | 73% | 1011.6 hPa | 0 mm | - | - | - |
| 1777489336 | 21.67° C | 72% | 1011.8 hPa | 0 mm | - | - | - |
| 1777489037 | 21.67° C | 70% | 1011.9 hPa | 0 mm | - | - | - |
* Rain latest hour (hover to see other rain measurements)
** Current wind speed in m/s (hover to see current wind gust speed)